Tracking 35274 objects as of 12-Sep-2026
HD Live streaming from Space Station
objects crossing your sky now

COSMOS 886 DEB

Track COSMOS 886 DEB now!
10-day predictions


NORAD ID: 14503
Int'l Code: 1976-126BQ
Launch date: December 27, 1976
Source: Commonwealth of Independent States (former USSR) (CIS)
Launch site: TYURATAM MISSILE AND SPACE COMPLEX (TTMTR)

Note: This is SATELLITE DEBRIS
Your satellite tracking list
Your tracking list is empty




NASA's NSSDC Master Catalog

Two Line Element Set (TLE):
1 14503U 76126BQ  26254.00707309 -.00000091  00000-0 -49451-4 0  9999
2 14503  65.8540 216.2139 1004511 209.7853 144.2163 12.32301242583987
Source of the keplerian elements: AFSPC